Location: Vlissingen
(51.4500°N, 3.5830°E)
Time: 12:48:32
(UTC+01:00)

N. Korean satellite - Pass Details

Date: 07 December 2021
Orbit: 447 x 490 km, 97.3° (Epoch: 27 January)

Event Time Altitude Azimuth Distance (km) Brightness Sun altitude
Rises 18:08:36 0° 207° (SSW) 2,513 11.0 -13.3°
Reaches altitude 10° 18:11:18 10° 230° (SW) 1,631 10.4 -13.7°
Maximum altitude 18:13:29 16° 269° (W) 1,318 9.8 -14.0°
Drops below altitude 10° 18:15:40 10° 308° (NW) 1,624 9.7 -14.3°
Sets 18:18:22 0° 332° (NNW) 2,495 10.3 -14.7°
